Location: Moscow
(55.7500°N, 37.5830°E)
Time: 11:07:19
(UTC+03:00)

Explorer 7 - Pass Details

Date: 05 December 2021
Orbit: 483 x 674 km, 50.3° (Epoch: 19 January)

Event Time Altitude Azimuth Distance (km) Brightness Sun altitude
Rises 08:20:54 0° 254° (WSW) 2,758 10.0 -3.1°
Reaches altitude 10° 08:23:18 10° 246° (WSW) 1,827 9.2 -2.8°
Maximum altitude 08:27:09 38° 178° (S) 819 8.2 -2.4°
Drops below altitude 10° 08:30:48 10° 109° (ESE) 1,732 10.9 -2.0°
Sets 08:33:02 0° 102° (ESE) 2,594 11.6 -1.7°
